Worcester, MA

7:22 AM EST on February 21, 2018 (GMT -0500)
Worcester Regional

Weather History for KORH - May, 2014

Change the Weather History Date:

Monday, May 5, 2014

  Actual Average Record
Temperature  
Mean Temperature 51 °F 53 °F  
Max Temperature 58 °F 63 °F 89 °F (1949)
Min Temperature 44 °F 44 °F 28 °F (1926)
Degree Days  
Heating Degree Days 14 12  
Month to date heating degree days 63 64  
Since 1 July heating degree days 6828 6411  
Cooling Degree Days 0 0  
Month to date cooling degree days 0 0  
Year to date cooling degree days 0 3  
Moisture  
Dew Point 37 °F    
Average Humidity 60    
Maximum Humidity 76    
Minimum Humidity 43    
Precipitation  
Precipitation 0.00 in 0.13 in 0.95 in (2017)
Month to date precipitation 0.87 0.63  
Year to date precipitation 17.91 15.67  
Sea Level Pressure  
Sea Level Pressure 29.78 in    
Wind  
Wind Speed 13 mph (NW)    
Max Wind Speed 23 mph    
Max Gust Speed 32 mph    
Visibility 10 miles    
Events      
T = Trace of Precipitation, MM = Missing Value Source: NWS Daily Summary

Daily Weather History Graph

Daily Weather History Graph

Search for Another Location

Airport or City:

Trip Planner

Search our weather history database for the weather conditions in past years. The results will help you decide how hot, cold, wet, or windy it might be!

Date:

Astronomy

May. 05, 2014 Rise Set
Actual Time 5:37 AM EDT 7:51 PM EDT
Civil Twilight 5:06 AM EDT 8:22 PM EDT
Nautical Twilight 4:28 AM EDT 9:00 PM EDT
Astronomical Twilight 3:46 AM EDT 9:43 PM EDT
Moon 10:55 AM EDT (5/5) 12:33 AM EDT (5/5)
Length of Visible Light 15h 15m
Length of Day
14h 13m
Waxing Crescent, 36% of the Moon is Illuminated
May 5
Waxing Crescent
May 6
First Quarter
May 14
Full
May 21
Last Quarter
May 28
New

Hourly Weather History & Observations

Time (EDT) Temp. Windchill Dew Point Humidity Pressure Visibility Wind Dir Wind Speed Gust Speed Precip Events Conditions
12:54 AM 45.0 °F 37.9 °F 36.0 °F 71% 29.66 in 10.0 mi WNW 16.1 mph 25.3 mph N/A   Mostly Cloudy
1:54 AM 44.1 °F 37.4 °F 37.0 °F 76% 29.66 in 10.0 mi WNW 13.8 mph 21.9 mph N/A   Mostly Cloudy
2:54 AM 44.1 °F 37.1 °F 37.0 °F 76% 29.68 in 10.0 mi WNW 15.0 mph - N/A   Mostly Cloudy
3:54 AM 44.1 °F 36.5 °F 37.0 °F 76% 29.69 in 10.0 mi WNW 17.3 mph - N/A   Scattered Clouds
4:54 AM 44.1 °F 36.5 °F 37.9 °F 79% 29.70 in 10.0 mi WNW 17.3 mph 25.3 mph N/A   Clear
5:54 AM 44.1 °F 37.4 °F 37.9 °F 79% 29.74 in 10.0 mi WNW 13.8 mph - N/A   Clear
6:54 AM 46.0 °F 39.6 °F 37.9 °F 73% 29.76 in 10.0 mi WNW 15.0 mph - N/A   Partly Cloudy
7:09 AM 46.9 °F - 39.0 °F 74% 29.75 in 10.0 mi NW 11.5 mph - N/A   Mostly Cloudy
7:54 AM 48.9 °F - 39.0 °F 69% 29.78 in 10.0 mi NW 17.3 mph 24.2 mph N/A   Scattered Clouds
8:52 AM 51.8 °F - 39.2 °F 62% 29.77 in 10.0 mi NW 15.0 mph 25.3 mph N/A   Mostly Cloudy
8:54 AM 51.1 °F - 39.0 °F 63% 29.79 in 10.0 mi NW 15.0 mph 20.7 mph N/A   Mostly Cloudy
9:24 AM 52.0 °F - 39.0 °F 61% 29.78 in 10.0 mi NW 15.0 mph 25.3 mph N/A   Overcast
9:54 AM 53.1 °F - 37.9 °F 57% 29.80 in 10.0 mi NNW 15.0 mph 21.9 mph N/A   Overcast
10:54 AM 54.0 °F - 37.0 °F 53% 29.80 in 10.0 mi NW 13.8 mph 23.0 mph N/A   Overcast
11:54 AM 54.0 °F - 36.0 °F 51% 29.81 in 10.0 mi NNW 15.0 mph 29.9 mph N/A   Overcast
12:54 PM 55.0 °F - 37.0 °F 51% 29.81 in 10.0 mi NNW 15.0 mph 21.9 mph N/A   Overcast
1:54 PM 55.9 °F - 37.0 °F 49% 29.81 in 10.0 mi NW 15.0 mph 20.7 mph N/A   Overcast
2:54 PM 57.0 °F - 37.0 °F 47% 29.80 in 10.0 mi NNW 13.8 mph 20.7 mph N/A   Overcast
3:54 PM 57.0 °F - 36.0 °F 45% 29.80 in 10.0 mi NNW 12.7 mph 21.9 mph N/A   Mostly Cloudy
4:54 PM 57.0 °F - 35.1 °F 44% 29.81 in 10.0 mi NNW 15.0 mph 24.2 mph N/A   Overcast
5:54 PM 55.9 °F - 36.0 °F 47% 29.81 in 10.0 mi NNW 9.2 mph - N/A   Overcast
6:54 PM 57.0 °F - 36.0 °F 45% 29.81 in 10.0 mi North 9.2 mph - N/A   Mostly Cloudy
7:54 PM 54.0 °F - 36.0 °F 51% 29.84 in 10.0 mi NNW 8.1 mph - N/A   Clear
8:54 PM 52.0 °F - 36.0 °F 54% 29.85 in 10.0 mi NNW 8.1 mph - N/A   Clear
9:54 PM 50.0 °F - 37.0 °F 61% 29.86 in 10.0 mi North 6.9 mph - N/A   Clear
10:54 PM 48.9 °F - 35.1 °F 59% 29.87 in 10.0 mi NNW 9.2 mph - N/A   Clear
11:54 PM 46.9 °F - 35.1 °F 63% 29.88 in 10.0 mi NW 4.6 mph - N/A   Clear